STARLINK-4316 (53471 NORAD) Tracking and Keplerian Element Data

This shows tracking and keplerian element data for the satellite.

Feedback or suggestion? Click here.




ElementValue
Catalog53471
NameSTARLINK-4316
Epoch Orbit1546
Epoch Day324.90828853
Epoch Year2022
RAAN83.9504
Inclination97.655
Eccentricity9.7E-05
Argument of Perigee234.7736
Mean Anonmoly125.3397
Mean Motion15.01251433
Decay Rate-6.11E-06
L11 53471U 22099G 22324.90828853 -.00000611 00000+0 -43012-4 0 9991
L22 53471 97.6550 83.9504 0000970 234.7736 125.3397 15.01251433 15462



Live tracking and technical data element details for STARLINK-4316 (NORAD 53471). STARLINK-4316 can be tracked NOW for your location showing map with azimuth and elevation plus other details from your city location.







IsCatalogInMostPopularTable: catalog: 53471, numindb: 7
Update: records affected: 1



GetName: 53471 STARLINK-4316

Hit Count: updated at: Thu, 08 Dec 2022 20:52:17 GMT